Regional Weather Roundup
Issued by NWS

Home | Current Version | Previous Version | Graphics & Text | Print | Product List | Glossary On
Versions: 1 2 3 4 5 6 7 8 9 10 11 12 13 14 15 16 17 18 19 20 21 22 23 24 25 26 27 28 29 30 31 32 33 34 35 36 37 38 39 40 41 42 43 44 45 46 47 48 49 50
000
ASUS43 KTOP 171808
RWRKS

WEATHER ROUNDUP FOR KANSAS
NATIONAL WEATHER SERVICE GOODLAND KS
100 PM CDT THU APR 17 2014

NOTE:  "FAIR" INDICATES FEW OR NO CLOUDS BELOW 12,000 FEET WITH NO
SIGNIFICANT WEATHER AND/OR OBSTRUCTIONS TO VISIBILITY.

KSZ001>006-013>018-027>032-041>047-171900-
NORTHWEST KANSAS

CITY           SKY/WX    TMP DP  RH WIND       PRES   REMARKS
GOODLAND       CLOUDY    44  33  65 S16G22    30.24F
6HR MIN TEMP:  30; 6HR MAX TEMP:  44;

HAYS           PTSUNNY   45  27  49 N6        30.31F
HILL CITY      SUNNY     45  27  49 W5        30.31F
6HR MIN TEMP:  32; 6HR MAX TEMP:  45;

RUSSELL        PTSUNNY   45  27  49 VRB6      30.29F
6HR MIN TEMP:  34; 6HR MAX TEMP:  45;

$$

KSZ061>065-074>080-084>089-171900-
SOUTHWEST KANSAS

CITY           SKY/WX    TMP DP  RH WIND       PRES   REMARKS
DODGE CITY     CLOUDY    38  35  89 NE8       30.28F FOG
6HR MIN TEMP:  32; 6HR MAX TEMP:  39; 6HR PCP:  0.15;

ELKHART          N/A     47  37  68 E6          N/A
GARDEN CITY    CLOUDY    39  34  82 N7        30.28F
6HR MIN TEMP:  33; 6HR MAX TEMP:  39; 6HR PCP:  0.14;

GREAT BEND     CLOUDY    45  27  49 NE3       30.30F
LIBERAL        PTSUNNY   45  39  81 E12       30.27S
PRATT          LGT RAIN  36  34  93 N9        30.31F
$$

KSZ066>073-081>083-090>101-171900-
SOUTHEAST KANSAS

CITY           SKY/WX    TMP DP  RH WIND       PRES   REMARKS
CHANUTE        CLOUDY    47  34  60 N6        30.31R
6HR MIN TEMP:  41; 6HR MAX TEMP:  48;

COFFEYVILLE    CLOUDY    54  37  52 N8        30.28S
6HR MIN TEMP:  44; 6HR MAX TEMP:  54;

HUTCHINSON     CLOUDY    39  32  76 NE6       30.32S
6HR MIN TEMP:  36; 6HR MAX TEMP:  40; 6HR PCP: TRACE;

MEDICINE LODGE   N/A     41  36  82 N12       30.30F
NEWTON         CLOUDY    37  28  70 N8        30.33F
PARSONS        CLOUDY    53  36  52 MISG      30.29R
6HR MIN TEMP:  43; 6HR MAX TEMP:  53;

WICHITA INTL   LGT RAIN  40  31  70 N9        30.31F
6HR MIN TEMP:  39; 6HR MAX TEMP:  41; 6HR PCP: TRACE;

WICHITA JABRA  CLOUDY    39  31  72 N9        30.31S
6HR MIN TEMP:  38; 6HR MAX TEMP:  40; 6HR PCP: TRACE;

WICHITA MCCONL CLOUDY    40  32  73 N10       30.31F WCI  33
WINFIELD       CLOUDY    47  33  58 N13       30.30S
6HR MIN TEMP:  41; 6HR MAX TEMP:  48;

$$

KSZ007>012-019>026-033>040-048>060-102>105-171900-
NORTHEAST KANSAS

CITY           SKY/WX    TMP DP  RH WIND       PRES   REMARKS
CONCORDIA      MOSUNNY   46  28  49 W5        30.30F
6HR MIN TEMP:  33; 6HR MAX TEMP:  47;

EMPORIA        CLOUDY    41  30  65 NE8       30.31S
6HR MIN TEMP:  37; 6HR MAX TEMP:  41; 6HR PCP: TRACE;

LAWRENCE       CLOUDY    46  32  58 VRB6      30.31F
6HR MIN TEMP:  38; 6HR MAX TEMP:  46;

MANHATTAN      PTSUNNY   45  30  55 E5        30.31F
6HR MIN TEMP:  36; 6HR MAX TEMP:  45;

OLATHE IND     CLOUDY    42  31  64 N8        30.31S
6HR MIN TEMP:  37; 6HR MAX TEMP:  43;

OLATHE EXE     CLOUDY    43  31  62 N9        30.29F
6HR MIN TEMP:  37; 6HR MAX TEMP:  43;

SALINA         PTSUNNY   45  28  51 E3        30.32F
6HR MIN TEMP:  36; 6HR MAX TEMP:  46;

TOPEKA BILLARD CLOUDY    46  32  58 NE7       30.32F
6HR MIN TEMP:  37; 6HR MAX TEMP:  46;

TOPEKA FORBES  CLOUDY    44  30  57 NE8       30.31F
6HR MIN TEMP:  37; 6HR MAX TEMP:  44;

$$



USA.gov is the U.S. government's official web portal to all federal, state and local government web resources and services.